カタログに戻る

METEOR 2-11 DEB

運用中PO
NORAD 42454·DEBRIS·🇷🇺 Russia

打ち上げ Jul 5, 1984 から Plesetsk Cosmodrome

Loading…

次のパス (今後24時間)

TLE

経年Source: Space-Track

元期: Sep 3, 2026, 21:23 UTC

1 42454U 84072Q   26246.89165108  .00001393  00000-0  95294-3 0  9996
2 42454  82.5107 298.2084 0020046 105.6041 254.7341 13.98960599573679

AllMySatでMETEOR 2-11 DEBをリアルタイム追跡

Download on the App Store